Back to catalog

SL-23 R/B

AliveHEO
NORAD 34112·ROCKET BODY·🇷🇺 Russia

Launched Feb 26, 2009 from Baikonur Cosmodrome

Loading…

Next Passes (next 24 hours)

TLE

FreshSource: Space-Track

Epoch: Sep 14, 2026, 01:49 UTC

1 34112U 09009B   26257.07627737  .00000000  00000-0  00000-0 0  9990
2 34112  34.5527 245.6247 6929208 203.2110 297.1667  2.20447639141320

Track SL-23 R/B in real time with AllMySat

Download on the App Store